This is the latest recevied weather packets stored in our database for station/object WC4PEM-10. If no packets are shown the sender has not sent any weather packets the latest 10 day(s).
| Time | Temp. | Humidity | Pressure | Rain* | Wind** | Luminosity | Snow |
|---|---|---|---|---|---|---|---|
| 1777396753 | 27.78° C | 64% | 1019.5 hPa | 0 mm | - | - | - |
| 1777396665 | 28.33° C | 62% | 1018.4 hPa | 0 mm | - | - | - |
| 1777396609 | 28.33° C | 62% | 1018.4 hPa | 0 mm | - | - | - |
| 1777396309 | 28.33° C | 62% | 1018.6 hPa | 0 mm | - | - | - |
| 1777396140 | 28.33° C | 62% | 1018.6 hPa | 0 mm | - | - | - |
| 1777396009 | 28.33° C | 62% | 1018.6 hPa | 0 mm | - | - | - |
| 1777395979 | 28.33° C | 63% | 1018.6 hPa | 0 mm | - | - | - |
| 1777395709 | 28.33° C | 63% | 1018.6 hPa | 0 mm | - | - | - |
| 1777395509 | 28.33° C | 62% | 1018.7 hPa | 0 mm | - | - | - |
| 1777395409 | 28.33° C | 62% | 1018.7 hPa | 0 mm | - | - | - |
| 1777395109 | 28.33° C | 61% | 1019 hPa | 0 mm | - | - | - |
| 1777394809 | 28.33° C | 63% | 1019.2 hPa | 0 mm | - | - | - |
| 1777394636 | 28.33° C | 62% | 1019.4 hPa | 0 mm | - | - | - |
| 1777394509 | 28.33° C | 62% | 1019.4 hPa | 0 mm | - | - | - |
| 1777394336 | 27.78° C | 64% | 1019.3 hPa | 0 mm | - | - | - |
| 1777394209 | 27.78° C | 64% | 1019.3 hPa | 0 mm | - | - | - |
| 1777394038 | 27.78° C | 64% | 1019.5 hPa | 0 mm | - | - | - |
| 1777393909 | 27.78° C | 64% | 1019.5 hPa | 0 mm | - | - | - |
| 1777393846 | 27.78° C | 63% | 1019.6 hPa | 0 mm | - | - | - |
| 1777393708 | 27.78° C | 63% | 1019.6 hPa | 0 mm | - | - | - |
| 1777393609 | 27.78° C | 63% | 1019.6 hPa | 0 mm | - | - | - |
| 1777393441 | 27.78° C | 63% | 1019.8 hPa | 0 mm | - | - | - |
| 1777393309 | 27.78° C | 63% | 1019.8 hPa | 0 mm | - | - | - |
| 1777393009 | 27.78° C | 63% | 1019.8 hPa | 0 mm | - | - | - |
| 1777392845 | 27.22° C | 67% | 1019.9 hPa | 0 mm | - | - | - |
* Rain latest hour (hover to see other rain measurements)
** Current wind speed in m/s (hover to see current wind gust speed)